Volver al catálogo

COSMOS 568

ActivoMilitarLEO
NORAD 6679·PAYLOAD·🇷🇺 Russia

Lanzado Jun 8, 1973 desde Plesetsk Cosmodrome

Loading…

Próximos Pases (próximas 24 horas)

TLE

ActualizadoSource: Space-Track

Época: Sep 14, 2026, 15:18 UTC

1  6679U 73037E   26257.63787756 -.00000001  00000-0  92681-4 0  9991
2  6679  74.0169 122.0678 0067949 283.8121 104.1391 12.58955235448025

Sigue COSMOS 568 en tiempo real con AllMySat

Download on the App Store